EN

Hourly Weather Altynivka

Today, 20 January, Wednesday

Time Temperature Precipitation Wind Pressure Humidity
00:00 -16°C° 0 mm 1 mps 750 mmHg 95%
01:00 -16°C° 0 mm 1 mps 750 mmHg 94%
02:00 -16°C° 0 mm 1 mps 750 mmHg 94%
03:00 -16°C° 0 mm 1 mps 750 mmHg 94%
04:00 -16°C° 0 mm 1 mps 750 mmHg 94%
05:00 -16°C° 0 mm 0 mps 750 mmHg 93%
06:00 -16°C° 0 mm 1 mps 750 mmHg 93%
07:00 -16°C° 0 mm 1 mps 751 mmHg 93%
08:00 -16°C° 0 mm 1 mps 751 mmHg 92%
09:00 -15°C° 0 mm 1 mps 752 mmHg 89%
10:00 -14°C° 0 mm 1 mps 752 mmHg 86%
11:00 -15°C° 0 mm 2 mps 752 mmHg 83%
12:00 -14°C° 0 mm 2 mps 752 mmHg 83%
13:00 -14°C° 0 mm 2 mps 752 mmHg 82%
14:00 -14°C° 0 mm 2 mps 752 mmHg 82%
15:00 -14°C° 0 mm 2 mps 752 mmHg 85%
16:00 -15°C° 0 mm 2 mps 752 mmHg 88%
17:00 -17°C° 0 mm 3 mps 752 mmHg 90%
18:00 -17°C° 0 mm 3 mps 752 mmHg 91%
19:00 -17°C° 0 mm 3 mps 752 mmHg 91%
20:00 -17°C° 0 mm 3 mps 752 mmHg 92%
21:00 -17°C° 0 mm 3 mps 752 mmHg 91%
22:00 -18°C° 0 mm 4 mps 752 mmHg 91%
23:00 -18°C° 0 mm 4 mps 752 mmHg 91%

Tomorrow, 21 January, Thursday

Time Temperature Precipitation Wind Pressure Humidity
00:00 -18°C° 0 mm 4 mps 752 mmHg 90%
01:00 -18°C° 0 mm 4 mps 752 mmHg 90%
02:00 -18°C° 0 mm 4 mps 752 mmHg 90%
03:00 -19°C° 0 mm 5 mps 751 mmHg 90%
04:00 -18°C° 0 mm 5 mps 751 mmHg 90%
05:00 -18°C° 0 mm 5 mps 751 mmHg 90%
06:00 -17°C° 0 mm 6 mps 750 mmHg 90%
07:00 -16°C° 0 mm 6 mps 750 mmHg 91%
08:00 -16°C° 0 mm 6 mps 750 mmHg 92%
09:00 -14°C° 0.2 mm 7 mps 750 mmHg 92%
10:00 -13°C° 0.2 mm 7 mps 750 mmHg 92%
11:00 -12°C° 0.2 mm 7 mps 750 mmHg 92%
12:00 -9°C° 0.1 mm 7 mps 749 mmHg 92%
13:00 -8°C° 0.1 mm 7 mps 749 mmHg 91%
14:00 -7°C° 0.1 mm 7 mps 748 mmHg 90%
15:00 -7°C° 0 mm 7 mps 748 mmHg 91%
16:00 -6°C° 0 mm 6 mps 748 mmHg 92%
17:00 -6°C° 0 mm 6 mps 748 mmHg 93%
18:00 -6°C° 0 mm 6 mps 748 mmHg 93%
19:00 -6°C° 0 mm 6 mps 748 mmHg 94%
20:00 -5°C° 0 mm 6 mps 748 mmHg 94%
21:00 -5°C° 0 mm 6 mps 748 mmHg 95%
22:00 -5°C° 0 mm 6 mps 748 mmHg 95%
23:00 -5°C° 0 mm 5 mps 748 mmHg 95%

Day after tomorrow, 22 January, Friday

Time Temperature Precipitation Wind Pressure Humidity
00:00 -5°C° 0 mm 5 mps 748 mmHg 95%
01:00 -5°C° 0 mm 5 mps 748 mmHg 96%
02:00 -5°C° 0 mm 5 mps 748 mmHg 96%
03:00 -5°C° 0 mm 5 mps 747 mmHg 96%
04:00 -5°C° 0 mm 5 mps 747 mmHg 96%
05:00 -4°C° 0 mm 5 mps 746 mmHg 96%
06:00 -4°C° 0 mm 5 mps 746 mmHg 96%
07:00 -4°C° 0 mm 6 mps 746 mmHg 96%
08:00 -4°C° 0 mm 6 mps 746 mmHg 96%
09:00 -4°C° 0 mm 6 mps 746 mmHg 96%
10:00 -3°C° 0 mm 6 mps 746 mmHg 95%
11:00 -3°C° 0 mm 6 mps 746 mmHg 94%
12:00 -2°C° 0 mm 5 mps 746 mmHg 93%
13:00 -1°C° 0 mm 5 mps 745 mmHg 92%
14:00 -1°C° 0 mm 5 mps 745 mmHg 90%
15:00 -1°C° 0 mm 5 mps 745 mmHg 90%
16:00 -2°C° 0 mm 5 mps 745 mmHg 90%
17:00 -2°C° 0 mm 5 mps 745 mmHg 90%
18:00 -2°C° 0 mm 5 mps 745 mmHg 91%
19:00 -2°C° 0 mm 5 mps 745 mmHg 91%
20:00 -2°C° 0 mm 5 mps 745 mmHg 92%
21:00 -2°C° 0 mm 5 mps 745 mmHg 93%
22:00 -2°C° 0 mm 5 mps 744 mmHg 93%
23:00 -2°C° 0 mm 5 mps 744 mmHg 94%

23 January, Saturday

Time Temperature Precipitation Wind Pressure Humidity
00:00 -2°C° 0 mm 5 mps 744 mmHg 93%
01:00 -2°C° 0 mm 5 mps 744 mmHg 93%
02:00 -2°C° 0 mm 5 mps 744 mmHg 93%
03:00 -2°C° 0 mm 5 mps 744 mmHg 94%
04:00 -2°C° 0 mm 5 mps 744 mmHg 95%
05:00 -3°C° 0 mm 6 mps 744 mmHg 97%
06:00 -1°C° 0 mm 5 mps 744 mmHg 97%
07:00 -1°C° 0 mm 5 mps 744 mmHg 97%
08:00 0°C° 0 mm 4 mps 744 mmHg 98%
09:00 0°C° 0 mm 4 mps 744 mmHg 98%
10:00 0°C° 0 mm 4 mps 744 mmHg 99%
11:00 0°C° 0 mm 4 mps 744 mmHg 99%
12:00 0°C° 0 mm 4 mps 744 mmHg 99%
13:00 0°C° 0 mm 4 mps 744 mmHg 98%
14:00 0°C° 0 mm 4 mps 743 mmHg 98%
15:00 0°C° 0 mm 4 mps 743 mmHg 98%
16:00 0°C° 0 mm 4 mps 743 mmHg 98%
17:00 0°C° 0 mm 4 mps 743 mmHg 98%
18:00 +1°C° 0 mm 4 mps 743 mmHg 98%
19:00 +1°C° 0 mm 4 mps 743 mmHg 97%
20:00 +1°C° 0 mm 4 mps 743 mmHg 97%
21:00 +1°C° 0 mm 4 mps 743 mmHg 97%
22:00 +1°C° 0 mm 5 mps 743 mmHg 97%
23:00 +1°C° 0 mm 5 mps 743 mmHg 96%

24 January, Sunday

Time Temperature Precipitation Wind Pressure Humidity
00:00 +1°C° 0 mm 5 mps 743 mmHg 97%
01:00 +1°C° 0 mm 5 mps 742 mmHg 97%
02:00 +1°C° 0 mm 5 mps 742 mmHg 97%
03:00 +1°C° 0 mm 5 mps 742 mmHg 96%
04:00 +1°C° 0 mm 5 mps 742 mmHg 96%
05:00 +1°C° 0 mm 6 mps 741 mmHg 96%
06:00 +1°C° 0 mm 6 mps 741 mmHg 95%
07:00 +1°C° 0 mm 6 mps 742 mmHg 95%
08:00 0°C° 0 mm 7 mps 742 mmHg 94%
09:00 0°C° 0 mm 7 mps 742 mmHg 93%
10:00 +2°C° 0 mm 7 mps 741 mmHg 91%
11:00 +2°C° 0 mm 7 mps 741 mmHg 89%
12:00 +1°C° 0.4 mm 8 mps 741 mmHg 90%
13:00 +1°C° 0.4 mm 8 mps 741 mmHg 91%
14:00 +1°C° 0.4 mm 8 mps 740 mmHg 91%
15:00 +1°C° 0.4 mm 8 mps 740 mmHg 89%
16:00 +1°C° 0.4 mm 8 mps 740 mmHg 87%
17:00 +1°C° 0.4 mm 8 mps 740 mmHg 85%
18:00 +1°C° 0.2 mm 9 mps 740 mmHg 86%
19:00 +1°C° 0.2 mm 9 mps 740 mmHg 87%
20:00 +1°C° 0.2 mm 9 mps 740 mmHg 88%
21:00 +1°C° 0.1 mm 9 mps 739 mmHg 89%
22:00 +1°C° 0.1 mm 8 mps 739 mmHg 91%
23:00 0°C° 0.1 mm 8 mps 739 mmHg 92%

25 January, Monday

Time Temperature Precipitation Wind Pressure Humidity
00:00 0°C° 0 mm 8 mps 739 mmHg 92%
01:00 0°C° 0 mm 7 mps 739 mmHg 93%
02:00 0°C° 0 mm 7 mps 740 mmHg 93%
03:00 +1°C° 0 mm 6 mps 740 mmHg 94%
04:00 +1°C° 0 mm 5 mps 740 mmHg 95%
05:00 +1°C° 0 mm 4 mps 740 mmHg 96%
06:00 +1°C° 0 mm 4 mps 740 mmHg 96%
07:00 +1°C° 0 mm 4 mps 740 mmHg 97%
08:00 +1°C° 0 mm 4 mps 740 mmHg 97%
09:00 +1°C° 0 mm 4 mps 741 mmHg 96%
10:00 +3°C° 0 mm 4 mps 741 mmHg 95%
11:00 +4°C° 0 mm 3 mps 741 mmHg 94%
12:00 +3°C° 0 mm 4 mps 741 mmHg 94%
13:00 +3°C° 0 mm 4 mps 741 mmHg 93%
14:00 +3°C° 0 mm 4 mps 741 mmHg 93%
15:00 +3°C° 0 mm 4 mps 741 mmHg 93%
16:00 +1°C° 0 mm 4 mps 740 mmHg 94%
17:00 +1°C° 0 mm 5 mps 740 mmHg 95%
18:00 +1°C° 0.1 mm 5 mps 740 mmHg 95%
19:00 +2°C° 0.1 mm 6 mps 740 mmHg 94%
20:00 +2°C° 0.1 mm 6 mps 739 mmHg 94%
21:00 +3°C° 0.7 mm 7 mps 739 mmHg 94%
22:00 +3°C° 0.7 mm 7 mps 738 mmHg 94%
23:00 +2°C° 0.7 mm 8 mps 737 mmHg 93%
Show more